Вернуться в каталог

RASSVET-3 13

АктивенНаукаPO
NORAD 68372·PAYLOAD·🇷🇺 Russia

Запущен Mar 23, 2026 с Plesetsk Cosmodrome

Loading…

Ближайшие Пролёты (ближайшие 24 часа)

TLE

СвежийSource: Space-Track

Эпоха: Sep 14, 2026, 12:26 UTC

1 68372U 26061N   26257.51857588  .00002942  00000-0  14157-3 0  9998
2 68372  82.2927 283.2146 0003046  99.0332 261.1247 15.18419518 26995

Отслеживайте RASSVET-3 13 в реальном времени с AllMySat

Download on the App Store